Weather reports worldwide

Advertisment
Tomelloso, Spain (8276): temperature & dewpoint: 17.05.2019 14:00:00 - 23.05.2019 14:00:00 (CEST)Tomelloso, Spain (8276): wind speed & gusts: 17.05.2019 14:00:00 - 23.05.2019 14:00:00 (CEST)Tomelloso, Spain (8276): wind direction: 17.05.2019 14:00:00 - 23.05.2019 14:00:00 (CEST)Tomelloso, Spain (8276): reduced air pressure: 17.05.2019 14:00:00 - 23.05.2019 14:00:00 (CEST)Tomelloso, Spain (8276): visibility: 17.05.2019 14:00:00 - 23.05.2019 14:00:00 (CEST)Tomelloso, Spain (8276): sunshine duration: 17.05.2019 14:00:00 - 23.05.2019 14:00:00 (CEST)Tomelloso, Spain (8276): precipitation: 17.05.2019 14:00:00 - 23.05.2019 14:00:00 (CEST)
Date & Time tt [°C] td [°C] ff [km/h] ff [kn] fx [km/h] fx [kn] dd ppp [hPa] vv [km] sd [min] rr [mm]
23.05.2019 14:00:00 - - - - - - - - - - -
23.05.2019 13:00:00 27,3 5,6 9 5 19 11 W 1014,6 13 39 0,0
23.05.2019 12:00:00 25,5 5,6 9 5 21 12 SSW 1015,3 14 60 0,0
23.05.2019 11:00:00 23,1 5,9 8 4 17 9 WSW 1016,1 14 59 0,0
23.05.2019 10:00:00 21,0 7,3 3 2 7 4 NNE 1016,5 14 49 0,0
23.05.2019 09:00:00 16,4 7,0 2 1 37 20 NE 1017,5 14 5 0,0
23.05.2019 08:00:00 13,8 6,4 2 1 5 3 E 1017,9 15 0 -
23.05.2019 07:00:00 13,4 6,5 3 2 6 4 NNE 1017,6 15 0 0,0
23.05.2019 06:00:00 13,4 5,8 2 1 5 3 SE 1017,7 15 0 0,0
23.05.2019 05:00:00 15,5 5,1 3 2 9 5 SW 1017,0 15 0 0,0
23.05.2019 04:00:00 17,6 4,8 2 1 16 9 WSW 1016,2 14 0 0,0
23.05.2019 03:00:00 18,5 4,6 8 4 15 8 WSW 1016,0 15 0 0,0
23.05.2019 02:00:00 19,2 5,0 7 4 14 8 SW 1015,9 15 0 -
23.05.2019 01:00:00 17,7 5,6 8 4 13 7 S 1016,3 15 0 0,0
23.05.2019 00:00:00 18,4 5,3 5 3 7 4 S 1015,9 14 0 0,0
22.05.2019 23:00:00 21,0 3,6 3 1 6 3 S 1015,1 12 0 0,0
22.05.2019 22:00:00 23,0 2,5 3 2 8 5 W 1014,0 16 0 0,0
22.05.2019 21:00:00 25,3 2,1 3 2 13 7 W 1013,1 16 1 0,0
22.05.2019 20:00:00 26,8 1,3 7 4 31 17 WNW 1012,7 15 34 -
22.05.2019 19:00:00 28,3 0,9 5 3 19 10 W 1012,3 16 49 0,0
22.05.2019 18:00:00 29,0 1,5 8 4 39 21 WNW 1012,3 14 56 0,0
22.05.2019 17:00:00 29,0 0,6 9 5 34 19 WNW 1012,7 14 60 0,0
22.05.2019 16:00:00 28,0 0,6 9 5 21 11 SW 1013,2 14 54 0,0
22.05.2019 15:00:00 27,6 1,9 8 4 21 12 NW 1013,7 17 57 0,0
22.05.2019 14:00:00 26,4 3,6 4 2 20 11 SSW 1014,3 11 56 -
22.05.2019 13:00:00 25,5 4,6 5 3 13 7 W 1014,9 14 60 0,0
22.05.2019 12:00:00 23,3 7,0 5 3 13 7 SSW 1015,6 14 60 0,0
22.05.2019 11:00:00 21,2 8,1 5 3 15 8 W 1015,9 16 60 0,0
22.05.2019 10:00:00 17,8 8,1 6 3 11 6 SSW 1016,8 14 60 0,0
22.05.2019 09:00:00 14,8 8,3 2 1 6 4 SE 1017,3 13 60 0,0
22.05.2019 08:00:00 10,7 8,0 4 2 7 4 N 1018,1 14 40 -
22.05.2019 07:00:00 9,2 7,1 3 1 6 3 ENE 1017,8 13 0 0,0
22.05.2019 06:00:00 10,0 8,1 6 3 7 4 E 1017,4 13 0 0,0
22.05.2019 05:00:00 11,3 8,7 3 2 8 4 E 1016,9 13 0 0,0
22.05.2019 04:00:00 12,8 9,3 5 3 12 7 NE 1016,5 13 0 0,0
22.05.2019 03:00:00 14,3 9,0 9 5 16 8 E 1015,8 15 0 0,0
22.05.2019 02:00:00 15,0 9,3 9 5 21 12 ESE 1015,7 15 0 -
22.05.2019 01:00:00 17,1 9,0 13 7 22 12 E 1015,2 15 0 0,0
22.05.2019 00:00:00 18,5 7,3 11 6 20 11 E 1014,9 15 0 0,0
21.05.2019 23:00:00 19,8 3,9 4 2 8 4 ENE 1014,0 15 0 0,0
21.05.2019 22:00:00 21,1 2,9 2 1 16 9 NE 1012,9 14 0 0,0
21.05.2019 21:00:00 22,2 2,3 3 2 10 5 W 1012,1 15 3 0,0
21.05.2019 20:00:00 24,0 2,1 5 3 12 6 N 1011,2 17 32 -
21.05.2019 19:00:00 24,5 2,1 3 2 53 28 NW 1010,7 15 38 0,0
21.05.2019 18:00:00 25,2 1,3 5 3 19 11 SW 1010,8 13 50 0,0
21.05.2019 17:00:00 24,7 2,7 3 2 10 6 NNE 1011,1 13 18 0,0
21.05.2019 16:00:00 23,6 1,9 5 3 21 12 SSW 1011,6 16 6 0,0
21.05.2019 15:00:00 25,3 2,1 9 5 19 11 W 1011,2 15 48 0,0
21.05.2019 14:00:00 24,6 2,1 5 3 61 33 WSW 1011,6 16 56 -
21.05.2019 13:00:00 22,9 2,3 6 3 21 11 W 1012,4 16 51 0,0
21.05.2019 12:00:00 21,9 3,0 5 3 15 8 S 1012,8 14 60 0,0
21.05.2019 11:00:00 20,2 3,4 5 3 14 8 W 1013,3 11 60 0,0
21.05.2019 10:00:00 18,3 5,1 4 2 14 8 W 1013,5 15 21 0,0
21.05.2019 09:00:00 16,0 5,3 5 3 10 5 SSW 1013,8 15 2 0,0
21.05.2019 08:00:00 15,1 4,8 7 4 12 7 S 1013,5 15 2 -
21.05.2019 07:00:00 15,1 4,1 2 1 10 5 W 1013,3 15 0 0,0
21.05.2019 06:00:00 15,3 4,3 5 3 13 7 S 1012,8 16 0 0,0
21.05.2019 05:00:00 15,9 3,6 5 3 17 9 E 1012,5 17 0 0,0
21.05.2019 04:00:00 16,1 4,8 7 4 18 10 NW 1012,9 15 0 0,0
21.05.2019 03:00:00 16,0 4,6 1 1 15 8 SSW 1012,7 14 0 0,0
21.05.2019 02:00:00 17,6 0,6 5 3 20 11 W 1012,8 16 0 -
21.05.2019 01:00:00 16,8 2,1 4 2 10 5 W 1012,9 16 0 0,0
21.05.2019 00:00:00 17,2 1,9 5 3 9 5 SW 1012,4 14 0 0,0
20.05.2019 23:00:00 17,7 0,4 5 3 10 6 W 1012,0 16 0 0,0
20.05.2019 22:00:00 18,4 0,4 5 3 11 6 W 1011,1 16 0 0,0
20.05.2019 21:00:00 20,5 0,4 6 3 21 11 W 1010,1 15 1 0,0
20.05.2019 20:00:00 21,5 -0,5 10 6 26 14 W 1009,7 16 19 -
20.05.2019 19:00:00 22,7 0,4 10 5 25 14 WSW 1009,5 15 45 0,0
20.05.2019 18:00:00 22,9 0,6 11 6 27 14 W 1009,3 14 44 0,0
20.05.2019 17:00:00 22,6 1,5 9 5 28 15 W 1009,5 16 13 0,0
20.05.2019 16:00:00 23,0 0,2 10 5 28 15 WNW 1009,7 18 33 0,0
20.05.2019 15:00:00 22,4 1,5 6 3 26 14 W 1010,4 13 16 0,0
20.05.2019 14:00:00 21,4 0,6 10 5 21 11 SSW 1011,1 14 56 -
20.05.2019 13:00:00 21,7 0,9 5 3 26 14 WNW 1011,3 3,1 60 0,0
20.05.2019 12:00:00 19,4 0,0 4 2 14 7 N 1012,1 14 60 0,0
20.05.2019 11:00:00 16,3 1,9 5 3 16 8 SW 1013,0 15 34 0,0
20.05.2019 10:00:00 14,2 1,5 6 4 12 7 WSW 1013,4 14 51 0,0
20.05.2019 09:00:00 10,7 1,3 4 2 8 4 S 1013,9 14 50 0,0
20.05.2019 08:00:00 7,2 0,6 3 2 6 3 SE 1014,5 16 47 -
20.05.2019 07:00:00 4,4 -0,3 4 2 7 4 E 1015,1 14 0 0,0
20.05.2019 06:00:00 6,1 0,4 3 2 6 3 S 1014,3 15 0 0,0
20.05.2019 05:00:00 6,8 0,2 7 4 10 6 NE 1013,9 14 0 0,0
20.05.2019 04:00:00 9,1 0,2 5 3 8 4 S 1013,4 15 0 0,0
20.05.2019 03:00:00 11,3 -0,3 3 2 12 6 NW 1012,9 14 0 0,0
20.05.2019 02:00:00 11,3 1,5 3 1 15 8 SSW 1013,1 15 0 -
20.05.2019 01:00:00 13,7 1,3 7 4 16 9 SSW 1012,5 14 0 0,0
20.05.2019 00:00:00 13,4 0,6 3 1 6 4 SSW 1012,4 14 0 0,0
19.05.2019 23:00:00 14,8 -0,5 4 2 6 3 S 1011,8 13 0 0,0
19.05.2019 22:00:00 16,4 -1,2 5 3 7 4 NE 1010,7 16 0 0,0
19.05.2019 21:00:00 18,2 -1,2 3 2 16 8 N 1009,8 15 2 0,0
19.05.2019 20:00:00 19,3 -1,7 8 4 19 10 N 1009,2 16 38 -
19.05.2019 19:00:00 21,6 -1,7 6 3 20 11 NNW 1008,7 16 56 0,0
19.05.2019 18:00:00 20,4 -1,0 6 3 21 11 N 1009,2 16 23 0,0
19.05.2019 17:00:00 20,3 -1,0 7 4 23 12 WNW 1009,7 16 32 0,0
19.05.2019 16:00:00 18,9 -1,0 8 5 24 13 NNW 1010,4 16 15 0,0
19.05.2019 15:00:00 18,4 -2,0 8 5 18 10 NW 1010,7 17 17 0,0
19.05.2019 14:00:00 18,7 0,2 9 5 22 12 NW 1010,8 13 25 -
19.05.2019 13:00:00 17,3 0,0 6 4 16 9 S 1011,1 12 47 0,0
19.05.2019 12:00:00 16,1 0,2 7 4 14 7 E 1011,8 14 60 0,0
19.05.2019 11:00:00 15,7 0,6 5 3 11 6 NNW 1012,0 12 60 0,0
19.05.2019 10:00:00 12,6 0,0 5 3 12 7 W 1012,9 13 48 0,0
19.05.2019 09:00:00 10,8 0,0 4 2 10 5 W 1012,9 15 27 0,0
19.05.2019 08:00:00 9,1 -0,3 5 3 10 5 WSW 1013,3 14 31 -
19.05.2019 07:00:00 8,0 -0,3 3 2 9 5 WSW 1013,0 14 0 0,0
19.05.2019 06:00:00 8,1 -0,5 3 2 6 4 WSW 1012,6 16 0 0,0
19.05.2019 05:00:00 9,1 0,0 3 1 13 7 SSW 1012,4 15 0 0,0
19.05.2019 04:00:00 10,5 -0,3 6 3 13 7 WSW 1012,2 15 0 0,0
19.05.2019 03:00:00 11,3 -1,4 4 2 11 6 WSW 1012,1 16 0 0,0
19.05.2019 02:00:00 11,2 -1,2 6 4 13 7 SW 1012,4 15 0 -
19.05.2019 01:00:00 10,8 -1,0 4 2 8 4 SSW 1012,6 14 0 0,0
19.05.2019 00:00:00 11,8 -2,5 4 2 11 6 WNW 1012,3 16 0 0,0
18.05.2019 23:00:00 12,4 -3,0 5 3 11 6 NNW 1012,0 17 0 0,0
18.05.2019 22:00:00 14,0 -3,0 6 3 18 10 NNW 1011,3 15 0 0,0
18.05.2019 21:00:00 16,1 -3,9 7 4 27 14 NNW 1010,3 15 4 0,0
18.05.2019 20:00:00 17,4 -5,1 10 5 29 15 NNW 1009,5 16 40 -
18.05.2019 19:00:00 19,5 -5,4 12 7 38 21 NNW 1008,8 16 59 0,0
18.05.2019 18:00:00 20,3 -4,8 12 6 36 19 NW 1008,3 16 50 0,0
18.05.2019 17:00:00 19,4 -3,0 10 5 32 17 WNW 1008,3 14 40 0,0
18.05.2019 16:00:00 18,6 -3,0 9 5 31 17 NW 1009,1 15 41 0,0
18.05.2019 15:00:00 17,1 -2,0 11 6 28 15 W 1009,7 13 24 0,0
18.05.2019 14:00:00 17,6 -0,7 9 5 29 16 NW 1009,9 14 36 -
18.05.2019 13:00:00 16,7 0,0 10 6 31 17 NW 1010,3 14 50 0,0
18.05.2019 12:00:00 15,7 0,0 10 5 29 15 NNW 1010,6 16 49 0,0
18.05.2019 11:00:00 13,7 0,0 11 6 31 17 NNW 1011,1 15 32 0,0
18.05.2019 10:00:00 13,4 -0,7 11 6 29 15 NNW 1010,9 16 16 0,0
18.05.2019 09:00:00 11,7 2,7 7 4 16 8 NNW 1011,0 14 3 0,0
18.05.2019 08:00:00 10,7 2,5 6 4 16 8 WNW 1011,2 14 0 -
18.05.2019 07:00:00 10,7 2,1 4 2 16 9 W 1010,2 15 0 0,0
18.05.2019 06:00:00 11,0 2,1 6 4 19 11 NW 1010,0 16 0 0,0
18.05.2019 05:00:00 11,6 1,3 8 5 24 13 NW 1009,9 15 0 0,0
18.05.2019 04:00:00 12,2 0,6 9 5 20 11 NW 1010,2 14 0 0,0
18.05.2019 03:00:00 13,0 1,9 8 4 19 11 W 1010,4 17 0 0,0
18.05.2019 02:00:00 14,4 1,7 6 3 13 7 W 1010,4 15 0 -
18.05.2019 01:00:00 14,7 0,4 4 2 12 7 WNW 1010,5 15 0 0,0
18.05.2019 00:00:00 15,3 0,2 4 2 11 6 W 1010,5 16 0 0,0
17.05.2019 23:00:00 15,4 -0,7 4 2 11 6 NW 1010,2 15 0 0,0
17.05.2019 22:00:00 16,3 -1,0 5 3 18 10 NNW 1009,6 14 0 0,0
17.05.2019 21:00:00 17,5 -1,7 8 4 26 14 NNW 1008,6 16 4 0,0
17.05.2019 20:00:00 18,8 -1,2 10 5 31 17 NNW 1008,1 15 28 -
17.05.2019 19:00:00 20,2 -1,0 16 9 37 20 NNW 1007,8 16 39 0,0
17.05.2019 18:00:00 20,3 -0,5 12 6 47 26 NW 1008,1 15 34 0,0
17.05.2019 17:00:00 20,2 0,0 12 6 41 22 NNW 1008,3 17 48 0,0
17.05.2019 16:00:00 19,7 1,1 15 8 40 21 NW 1008,9 15 21 0,0
17.05.2019 15:00:00 18,9 1,5 15 8 45 25 NW 1009,0 14 25 0,0
17.05.2019 14:00:00 18,6 1,1 17 9 46 25 NW 1008,8 19 26 -

tt = temperature
td = dewpoint
ff = wind speed
fx = gusts
dd = wind direction
ppp = reduced air pressure
vv = visibility
sd = sunshine duration
rr = precipitation

Next stations